Location: Caltech
(34.1382°N, 118.1253°W)
Time: 01:24:18
(UTC-08:00)

Iridium 21 - Visible Passes

Search period start: 27 February 2017 00:00
Search period end: 09 March 2017 00:00
Orbit: 776 x 779 km, 86.4° (Epoch: 26 February)

Date Brightness Start Highest point End Pass type
(mag) Time Alt. Az. Time Alt. Az. Time Alt. Az.
27 Feb 6.3 18:17:04 10° NNE 18:21:36 30° E 18:26:07 10° SE visible
27 Feb 7.7 19:57:56 10° NNW 20:02:08 25° W 20:06:18 10° SW visible
28 Feb 6.5 19:23:48 10° NNW 19:28:48 48° W 19:33:46 10° SSW visible
01 Mar 5.5 18:50:06 10° N 18:55:21 86° E 19:00:34 10° S visible
02 Mar 5.8 18:16:48 10° NNE 18:21:47 44° E 18:26:44 10° SSE visible
02 Mar 8.3 19:58:48 10° NW 20:02:04 17° W 20:05:18 10° WSW visible
03 Mar 7.4 19:24:12 10° NNW 19:28:47 32° W 19:33:22 10° SSW visible
04 Mar 6.0 18:50:16 10° N 18:55:25 63° W 19:00:33 10° S visible
05 Mar 5.5 18:16:43 10° N 18:21:56 67° E 18:27:06 10° S visible
05 Mar 8.9 20:00:38 10° WNW 20:01:56 11° WNW 20:03:16 10° W visible
06 Mar 8.8 05:31:44 10° ESE 05:34:25 14° E 05:37:07 10° NE visible
06 Mar 8.1 19:24:50 10° NNW 19:28:45 22° W 19:32:40 10° SW visible
07 Mar 6.9 18:50:34 10° NNW 18:55:26 42° W 19:00:19 10° SSW visible
08 Mar 5.7 18:16:47 10° N 18:22:02 82° W 18:27:14 10° S visible
